Flag for U.S.A. Weather past 2 weeks in Santa Rosa, California, U.S.A.

Now
67 °F

Passing clouds.


Feels Like: 67 °F
Forecast: 44 / 73 °F
Wind: 10 mph from North

Location: Santa Rosa Sonoma County Airport

Current Time: Mar 28, 2015 at 11:34:19 AM

Latest Report: Mar 28, 2015 at 10:53 AM


Visibility: 10 mi

Pressure: 30.16 "Hg

Humidity: 45%

Dew point: 45 °F

Location of Santa RosaLocation

Historic Weather in Santa Rosa — Graph

°F

Santa Rosa temperature yesterday

Maximum temperature yesterday: 70 °F (at 2:53 PM)
Minimum temperature yesterday: 46 °F (at 6:00 AM)
Average temperature yesterday: 57 °F

Past Weeks' High & Low Weather Summary

 TemperatureHumidityPressure
High83 °F (Mar 26, 3:53 PM)100% (Mar 17, 6:53 AM)30.28 "Hg (Mar 17, 6:53 AM)
Low41 °F (Mar 19, 6:53 AM)28% (Mar 20, 3:53 PM)29.93 "Hg (Mar 14, 6:53 PM)
Average58 °F75%30.09 "Hg
* Reported Mar 13 9:53 AM — Mar 28 9:53 AM, Santa Rosa, Weather by CustomWeather, © 2015

Note: Actual official high and low records may vary slightly from our data, if they occured in-between our weather recording intervals... More about our weather records

Advertising

Santa Rosa weather history for previous 24 hours

 ConditionsComfort  
Time TempWeatherWind HumidityBarometerVisibility
9:53 AM
Sat, Mar 28
61 °FPassing clouds.12 mph56%30.17 "Hg10 mi
8:53 AM54 °FPassing clouds.No wind80%30.16 "Hg10 mi
7:53 AM46 °FClear.3 mph93%30.15 "Hg10 mi
6:53 AM42 °FClear.6 mph100%30.13 "Hg10 mi
5:53 AM42 °FLight rain. Clear.6 mph100%30.12 "Hg7 mi
4:53 AM43 °FFog.No wind100%30.12 "Hg4 mi
3:53 AM45 °FClear.No wind97%30.11 "Hg10 mi
2:53 AM48 °FClear.No wind93%30.11 "Hg9 mi
1:53 AM49 °FClear.No wind93%30.12 "Hg10 mi
12:53 AM51 °FClear.No wind92%30.13 "Hg10 mi
11:53 PM
Fri, Mar 27
54 °FClear.No wind77%30.13 "Hg10 mi
10:53 PM56 °FClear.6 mph72%30.14 "Hg10 mi
9:53 PM58 °FClear.12 mph70%30.12 "Hg10 mi
8:53 PM55 °FClear.7 mph83%30.11 "Hg10 mi
7:53 PM57 °FSunny.3 mph81%30.09 "Hg10 mi
6:53 PM61 °FSunny.14 mph72%30.06 "Hg10 mi
5:53 PM66 °FSunny.10 mph63%30.06 "Hg10 mi
4:53 PM69 °FSunny.12 mph61%30.06 "Hg10 mi
3:53 PM70 °FSunny.12 mph57%30.07 "Hg10 mi
2:53 PM70 °FPassing clouds.10 mph59%30.09 "Hg10 mi
1:53 PM69 °FPassing clouds.9 mph61%30.10 "Hg10 mi
12:53 PM66 °FPassing clouds.9 mph65%30.12 "Hg10 mi
11:53 AM62 °FPassing clouds.7 mph73%30.14 "Hg10 mi
Weather by CustomWeather, © 2015

See weather overviewHow to use our weather pages